Left ArrowRight Arrow

38.83388, -104.82136

Hourly Observations for November 6, 2016

Temp ( °F °C ) Dew Point ( °F °C ) Humidity (%) Winds ( mph kmh ) Pressure ( in mb ) Visibility ( mi km ) Precip ( " mm )
12:58 am 00:58 Mostly Cloudy 49 9.2 36 2.4 63 63 Calm 29.68 1005 10 16 N/A
1:58 am 01:58 Clear 48 9 36 2.2 63 63 Calm 29.65 1004 10 16 N/A
1:58 am 01:58 Clear 45 7.2 34 1.3 66 66 Calm 29.67 1005 10 16 N/A
2:58 am 02:58 Partly Cloudy 44 6.5 35 1.8 72 72 SW 3 6 29.66 1004 10 16 N/A
3:58 am 03:58 Partly Cloudy 45 7.1 35 1.9 70 70 Calm 29.66 1004 10 16 N/A
4:58 am 04:58 Clear 47 8.4 30 -1.1 52 52 Calm 29.65 1004 10 16 N/A
5:58 am 05:58 Clear 46 7.9 31 -0.5 56 56 NW 5 7 29.66 1004 10 16 N/A
6:58 am 06:58 Sunny 47 8.3 31 -0.7 53 53 NW 5 7 29.66 1004 10 16 N/A
7:58 am 07:58 Mostly Cloudy 50 10.2 33 0.6 52 52 Calm 29.65 1004 10 16 N/A
8:58 am 08:58 Mostly Cloudy 55 12.5 30 -1.1 39 39 N 10 17 29.64 1004 10 16 N/A
9:58 am 09:58 Mostly Sunny 56 13.2 30 -1.2 37 37 NNE 7 11 29.65 1004 10 16 N/A
10:58 am 10:58 Partly Cloudy 58 14.3 34 1.3 41 41 SSE 7 11 29.63 1003 10 16 N/A
11:58 am 11:58 Mostly Cloudy 58 14.4 34 1 40 40 ENE 5 7 29.61 1003 10 16 N/A
12:58 pm 12:58 Mostly Cloudy 57 13.9 31 -0.7 37 37 NW 3 6 29.60 1002 10 16 N/A
1:58 pm 13:58 Partly Cloudy 59 15 29 -1.6 32 32 ESE 3 6 29.60 1002 10 16 N/A
2:58 pm 14:58 Mostly Cloudy 59 14.9 29 -1.8 32 32 ESE 6 9 29.61 1003 10 16 N/A
3:58 pm 15:58 Mostly Cloudy 58 14.2 30 -1.3 35 35 Calm 29.62 1003 10 16 N/A
4:58 pm 16:58 Partly Cloudy 55 12.8 36 2.4 49 49 S 7 11 29.64 1004 10 16 N/A
5:58 pm 17:58 Mostly Cloudy 54 12.3 36 2 50 50 SSW 5 7 29.68 1005 10 16 N/A
6:58 pm 18:58 Mostly Cloudy 52 11 36 2.2 55 55 SSW 3 6 29.70 1006 10 16 N/A
7:58 pm 19:58 Clear 50 9.8 35 1.6 57 57 Calm 29.72 1006 10 16 N/A
8:58 pm 20:58 Clear 49 9.6 33 0.4 53 53 WNW 5 7 29.72 1006 10 16 N/A
9:58 pm 21:58 Clear 50 10.2 31 -0.7 47 47 Calm 29.71 1006 10 16 N/A
10:58 pm 22:58 Clear 50 9.9 29 -1.5 45 45 SW 3 6 29.71 1006 10 16 N/A
11:58 pm 23:58 Clear 54 12.3 17 -8.1 23 23 NW 12 19 29.68 1005 10 16 N/A

Powered by Vaisala Xweather